Previsão horária em Barnim

Hoje, 25 Outubro, Domingo

Tempo Temperatura Precipitação Vento Pressão Humidade
00:00 +11°C° 0 mm 3 m/s 757 mmHg 89%
01:00 +10°C° 0 mm 3 m/s 757 mmHg 89%
02:00 +10°C° 0 mm 4 m/s 756 mmHg 91%
03:00 +10°C° 0 mm 4 m/s 756 mmHg 92%
04:00 +8°C° 0 mm 4 m/s 756 mmHg 93%
05:00 +8°C° 0 mm 4 m/s 756 mmHg 93%
06:00 +8°C° 0 mm 4 m/s 756 mmHg 92%
07:00 +8°C° 0 mm 4 m/s 756 mmHg 92%
08:00 +10°C° 0 mm 5 m/s 756 mmHg 86%
09:00 +12°C° 0 mm 5 m/s 755 mmHg 79%
10:00 +13°C° 0 mm 5 m/s 755 mmHg 73%
11:00 +14°C° 0 mm 5 m/s 755 mmHg 70%
12:00 +15°C° 0 mm 5 m/s 755 mmHg 66%
13:00 +16°C° 0 mm 6 m/s 754 mmHg 63%
14:00 +16°C° 0 mm 5 m/s 754 mmHg 66%
15:00 +15°C° 0 mm 4 m/s 753 mmHg 69%
16:00 +15°C° 0 mm 4 m/s 753 mmHg 72%
17:00 +14°C° 0 mm 4 m/s 753 mmHg 74%
18:00 +13°C° 0 mm 5 m/s 753 mmHg 75%
19:00 +13°C° 0 mm 5 m/s 753 mmHg 77%
20:00 +12°C° 0 mm 5 m/s 753 mmHg 78%
21:00 +12°C° 0 mm 5 m/s 752 mmHg 78%
22:00 +12°C° 0 mm 5 m/s 752 mmHg 79%
23:00 +12°C° 0 mm 4 m/s 752 mmHg 82%

Amanhã, 26 Outubro, Segunda-feira

Tempo Temperatura Precipitação Vento Pressão Humidade
00:00 +11°C° 0 mm 3 m/s 752 mmHg 84%
01:00 +11°C° 0 mm 3 m/s 752 mmHg 87%
02:00 +10°C° 0 mm 3 m/s 752 mmHg 88%
03:00 +10°C° 0 mm 3 m/s 752 mmHg 90%
04:00 +10°C° 0 mm 2 m/s 752 mmHg 92%
05:00 +10°C° 0 mm 2 m/s 752 mmHg 92%
06:00 +10°C° 0 mm 2 m/s 751 mmHg 93%
07:00 +9°C° 0 mm 2 m/s 751 mmHg 93%
08:00 +10°C° 0 mm 2 m/s 751 mmHg 89%
09:00 +13°C° 0 mm 2 m/s 751 mmHg 85%
10:00 +14°C° 0 mm 2 m/s 751 mmHg 81%
11:00 +14°C° 0 mm 2 m/s 751 mmHg 79%
12:00 +14°C° 0 mm 2 m/s 751 mmHg 77%
13:00 +14°C° 0 mm 3 m/s 751 mmHg 75%
14:00 +13°C° 0.1 mm 3 m/s 751 mmHg 80%
15:00 +13°C° 0.1 mm 2 m/s 751 mmHg 84%
16:00 +12°C° 0.1 mm 2 m/s 751 mmHg 89%
17:00 +12°C° 0.1 mm 2 m/s 751 mmHg 90%
18:00 +10°C° 0.1 mm 2 m/s 751 mmHg 91%
19:00 +11°C° 0.1 mm 1 m/s 752 mmHg 92%
20:00 +11°C° 0 mm 1 m/s 752 mmHg 91%
21:00 +11°C° 0 mm 1 m/s 752 mmHg 91%
22:00 +11°C° 0 mm 1 m/s 752 mmHg 90%
23:00 +10°C° 0 mm 1 m/s 752 mmHg 91%

Depois de amanhã, 27 Outubro, Terça-feira

Tempo Temperatura Precipitação Vento Pressão Humidade
00:00 +9°C° 0 mm 2 m/s 753 mmHg 92%
01:00 +8°C° 0 mm 2 m/s 753 mmHg 93%
02:00 +8°C° 0 mm 2 m/s 753 mmHg 93%
03:00 +8°C° 0 mm 2 m/s 753 mmHg 92%
04:00 +8°C° 0 mm 2 m/s 753 mmHg 92%
05:00 +8°C° 0 mm 2 m/s 753 mmHg 92%
06:00 +8°C° 0 mm 2 m/s 753 mmHg 91%
07:00 +8°C° 0 mm 2 m/s 753 mmHg 91%
08:00 +9°C° 0 mm 2 m/s 753 mmHg 87%
09:00 +10°C° 0 mm 2 m/s 754 mmHg 82%
10:00 +11°C° 0 mm 3 m/s 754 mmHg 78%
11:00 +11°C° 0 mm 3 m/s 754 mmHg 76%
12:00 +12°C° 0 mm 3 m/s 754 mmHg 74%
13:00 +12°C° 0 mm 3 m/s 754 mmHg 72%
14:00 +12°C° 0 mm 3 m/s 754 mmHg 74%
15:00 +11°C° 0 mm 3 m/s 754 mmHg 77%
16:00 +11°C° 0 mm 3 m/s 754 mmHg 80%
17:00 +10°C° 0 mm 3 m/s 754 mmHg 82%
18:00 +10°C° 0 mm 3 m/s 754 mmHg 84%
19:00 +10°C° 0 mm 3 m/s 754 mmHg 85%
20:00 +9°C° 0 mm 3 m/s 754 mmHg 87%
21:00 +9°C° 0 mm 3 m/s 754 mmHg 90%
22:00 +8°C° 0 mm 3 m/s 754 mmHg 92%
23:00 +8°C° 0 mm 3 m/s 754 mmHg 92%

28 Outubro, Quarta-feira

Tempo Temperatura Precipitação Vento Pressão Humidade
00:00 +7°C° 0 mm 4 m/s 754 mmHg 92%
01:00 +6°C° 0 mm 4 m/s 754 mmHg 91%
02:00 +6°C° 0 mm 4 m/s 754 mmHg 91%
03:00 +6°C° 0 mm 4 m/s 754 mmHg 91%
04:00 +6°C° 0 mm 4 m/s 754 mmHg 91%
05:00 +6°C° 0 mm 4 m/s 754 mmHg 90%
06:00 +6°C° 0 mm 5 m/s 754 mmHg 89%
07:00 +6°C° 0 mm 5 m/s 754 mmHg 88%
08:00 +7°C° 0 mm 6 m/s 754 mmHg 84%
09:00 +8°C° 0 mm 6 m/s 754 mmHg 79%
10:00 +9°C° 0 mm 7 m/s 754 mmHg 74%
11:00 +9°C° 0.1 mm 6 m/s 754 mmHg 76%
12:00 +9°C° 0.1 mm 5 m/s 754 mmHg 77%
13:00 +9°C° 0.1 mm 5 m/s 754 mmHg 78%
14:00 +9°C° 0.1 mm 5 m/s 754 mmHg 78%
15:00 +10°C° 0.1 mm 4 m/s 754 mmHg 78%
16:00 +10°C° 0.1 mm 4 m/s 754 mmHg 78%
17:00 +8°C° 0 mm 4 m/s 754 mmHg 79%
18:00 +8°C° 0 mm 4 m/s 754 mmHg 80%
19:00 +8°C° 0 mm 4 m/s 754 mmHg 82%
20:00 +8°C° 0 mm 4 m/s 754 mmHg 82%
21:00 +8°C° 0 mm 5 m/s 754 mmHg 83%
22:00 +8°C° 0 mm 5 m/s 754 mmHg 84%
23:00 +8°C° 0 mm 5 m/s 754 mmHg 84%

29 Outubro, Quinta-feira

Tempo Temperatura Precipitação Vento Pressão Humidade
00:00 +8°C° 0 mm 5 m/s 754 mmHg 83%
01:00 +8°C° 0 mm 5 m/s 754 mmHg 83%
02:00 +8°C° 0 mm 5 m/s 754 mmHg 84%
03:00 +8°C° 0 mm 5 m/s 754 mmHg 84%
04:00 +8°C° 0 mm 5 m/s 754 mmHg 85%
05:00 +8°C° 0 mm 5 m/s 754 mmHg 84%
06:00 +8°C° 0 mm 5 m/s 754 mmHg 84%
07:00 +9°C° 0 mm 5 m/s 754 mmHg 83%
08:00 +9°C° 0.1 mm 6 m/s 754 mmHg 79%
09:00 +10°C° 0.1 mm 6 m/s 754 mmHg 75%
10:00 +10°C° 0.1 mm 7 m/s 755 mmHg 72%
11:00 +11°C° 0.1 mm 7 m/s 755 mmHg 69%
12:00 +11°C° 0.1 mm 7 m/s 755 mmHg 67%
13:00 +12°C° 0.1 mm 7 m/s 756 mmHg 65%
14:00 +11°C° 0.1 mm 6 m/s 756 mmHg 67%
15:00 +12°C° 0.1 mm 5 m/s 756 mmHg 69%
16:00 +11°C° 0.1 mm 4 m/s 757 mmHg 71%
17:00 +11°C° 0 mm 4 m/s 757 mmHg 74%
18:00 +10°C° 0 mm 4 m/s 757 mmHg 77%
19:00 +8°C° 0 mm 4 m/s 758 mmHg 80%
20:00 +8°C° 0 mm 4 m/s 758 mmHg 79%
21:00 +9°C° 0 mm 5 m/s 758 mmHg 77%
22:00 +9°C° 0 mm 5 m/s 758 mmHg 75%
23:00 +9°C° 0 mm 5 m/s 758 mmHg 76%

30 Outubro, Sexta-feira

Tempo Temperatura Precipitação Vento Pressão Humidade
00:00 +9°C° 0 mm 6 m/s 758 mmHg 77%
01:00 +9°C° 0 mm 6 m/s 757 mmHg 77%
02:00 +9°C° 0.5 mm 6 m/s 757 mmHg 81%
03:00 +10°C° 0.5 mm 7 m/s 757 mmHg 85%
04:00 +10°C° 0.5 mm 7 m/s 757 mmHg 88%
05:00 +10°C° 0 mm 7 m/s 757 mmHg 87%
06:00 +11°C° 0 mm 6 m/s 757 mmHg 86%
07:00 +11°C° 0 mm 6 m/s 757 mmHg 85%
08:00 +13°C° 0 mm 6 m/s 757 mmHg 83%
09:00 +12°C° 0 mm 7 m/s 758 mmHg 81%
10:00 +14°C° 0 mm 7 m/s 758 mmHg 79%
11:00 +14°C° 0 mm 7 m/s 758 mmHg 78%
12:00 +14°C° 0 mm 6 m/s 758 mmHg 78%
13:00 +14°C° 0 mm 6 m/s 758 mmHg 77%
14:00 +14°C° 0 mm 6 m/s 759 mmHg 77%
15:00 +14°C° 0 mm 5 m/s 759 mmHg 77%
16:00 +14°C° 0 mm 5 m/s 759 mmHg 77%
17:00 +14°C° 0 mm 5 m/s 759 mmHg 77%
18:00 +13°C° 0 mm 5 m/s 759 mmHg 77%
19:00 +13°C° 0 mm 5 m/s 759 mmHg 77%
20:00 +12°C° 0 mm 5 m/s 760 mmHg 79%
21:00 +12°C° 0 mm 5 m/s 760 mmHg 80%
22:00 +11°C° 0 mm 4 m/s 760 mmHg 81%
23:00 +11°C° 0 mm 4 m/s 760 mmHg 84%
Mostrar mais